#timestamp,LO_Frequency,Hit,StdDev 
1512583215.2,286046997.4,N
1512583235.1,286046996.3,N
1512583236.0,286046996.3,N
1512583255.8,286046990.5,N
1512583275.6,286046995.3,N
1512583295.5,286046998.5,N
1512583315.3,286046997.8,N
1512583335.1,286047001.3,N
1512583355.9,286047003.9,N
1512583375.7,286047001.8,N
1512583395.5,286046998.4,N
1512583415.3,286047003.9,N
1512583435.2,286047005.7,N
1512583455.0,286047006.0,N
1512583455.9,286047006.0,N
1512583475.7,286047003.4,N
1512583495.6,286047003.2,N
1512583515.4,286047005.6,N
1512583535.2,286047006.8,N
1512583555.1,286047008.9,N
1512583556.0,286047008.9,N
1512583575.8,286047008.4,N
1512583595.6,286047008.0,N
1512583615.5,286047004.6,N
1512583635.3,286047002.5,N
1512583655.1,286047003.5,N
1512583675.9,286047007.2,N
1512583695.7,286047008.2,N
1512583715.5,286047007.7,N
1512583735.3,286047009.0,N
1512583755.2,286047008.0,N
1512583775.0,286047007.1,N
1512583775.9,286047007.1,N
1512583795.7,286047007.0,N
1512583815.6,286047007.6,N
1512583835.4,286047005.7,N
1512583855.2,286047010.7,Y
1512583875.1,286047005.8,P
1512583876.0,286047005.8,P
1512583895.8,286047005.5,P
1512583915.7,286047009.1,Y
1512583935.5,286047003.7,P
1512583955.3,286047001.4,N
1512583975.1,286047004.4,N
1512583995.9,286047000.8,N
1512584015.7,286046998.8,N
1512584035.5,286046998.7,N
1512584055.4,286046998.3,N
1512584075.2,286046997.7,N
1512584095.0,286046997.5,N
1512584095.9,286046997.5,N
1512584115.8,286047001.2,N
1512584135.6,286047000.8,N
1512584155.4,286047002.7,N
1512584175.3,286047003.8,N
1512584195.1,286047006.9,N
1512584196.0,286047006.9,N
1512584215.8,286047009.2,N
1512584235.7,286047007.4,N
1512584255.5,286047003.1,N
1512584275.3,286047004.9,N
1512584295.1,286047006.6,N
1512584315.9,286047010.8,Y
1512584335.7,286047005.0,P
1512584355.6,286047004.5,P
1512584375.4,286047004.2,P
1512584395.2,286046998.9,N
1512584415.0,286046993.5,N
1512584415.9,286046993.5,N
1512584435.8,286047000.5,N
1512584455.6,286047004.9,N
1512584475.4,286047005.6,N
1512584495.3,286047005.2,N
1512584515.1,286047006.5,N
1512584535.8,286047006.7,N
1512584555.7,286047004.2,N
1512584575.5,286047002.1,N
1512584595.3,286047003.0,N
1512584615.2,286047004.1,N
1512584635.9,286047003.4,N
1512584655.7,286047007.2,N
1512584675.6,286047009.9,N
1512584695.4,286047015.2,Y
1512584715.2,286047008.8,P
1512584735.1,286047003.0,N
1512584736.0,286047003.0,N
1512584755.8,286046997.9,N
1512584775.6,286046995.6,N
1512584795.5,286046995.5,N
1512584815.3,286046998.8,N
1512584835.1,286047004.3,N
1512584855.8,286047000.9,N
1512584875.7,286046997.0,N
1512584895.5,286046997.6,N
1512584915.3,286046998.4,N
1512584935.2,286046998.7,N
1512584955.9,286047001.9,N
1512584975.7,286046999.8,N
1512584995.6,286046998.6,N
1512585015.4,286047000.4,N
1512585035.2,286047001.2,N
1512585055.0,286046994.9,N
1512585056.0,286046994.9,N
1512585075.8,286046993.4,N
1512585095.6,286046999.5,N
1512585115.4,286047001.3,N
1512585135.3,286047005.7,N
1512585155.1,286047005.7,N
1512585175.8,286047003.8,N
1512585195.7,286047001.3,N
1512585215.5,286047003.8,N
1512585235.3,286046999.8,N
1512585255.2,286047002.1,N
1512585275.9,286047001.1,N
1512585295.7,286047001.2,N
1512585315.6,286047000.0,N
1512585335.4,286046997.1,N
1512585355.2,286046996.4,N
1512585375.0,286046992.1,N
1512585375.9,286046992.1,N
1512585395.8,286046996.3,N
1512585415.6,286046992.1,N
1512585435.4,286046992.8,N
1512585455.3,286046995.7,N
1512585475.1,286046997.7,N
1512585495.8,286046993.6,N
1512585515.7,286046997.4,N
1512585535.5,286046998.9,N
1512585555.3,286046997.9,N
1512585575.2,286046997.8,N
1512585595.9,286046993.8,N
1512585615.7,286046996.1,N
1512585635.6,286046997.3,N
1512585655.4,286046997.1,N
1512585675.2,286046997.3,N
1512585695.0,286046998.5,N
1512585696.0,286046998.5,N
1512585715.8,286046994.9,N
1512585735.6,286046997.9,N
1512585755.4,286046993.4,N
1512585775.3,286046993.8,N
1512585795.1,286046991.8,N
1512585815.8,286046992.4,N
1512585835.7,286046992.3,N
1512585855.5,286046990.3,Y
1512585875.3,286046995.2,P
1512585895.2,286046996.6,P
1512585915.9,286046997.9,P
1512585935.7,286046997.4,N
1512585955.6,286046994.9,Y
1512585975.4,286047000.7,P
1512585995.2,286046996.9,N
1512586015.1,286046995.7,N
1512586016.0,286046995.7,N
1512586035.8,286046996.2,N
1512586055.6,286046996.1,N
1512586075.5,286046995.3,N
1512586095.3,286046996.3,N
1512586115.1,286047000.7,N
1512586135.9,286047005.3,N
1512586155.7,286047010.8,Y
1512586175.5,286047009.3,P
1512586195.4,286047015.3,N
1512586215.2,286047015.2,N
1512586235.0,286047015.7,N
1512586235.9,286047015.7,N
1512586255.8,286047020.3,Y
1512586275.6,286047001.8,P
1512586295.4,286047004.4,N
1512586315.2,286047004.0,N
1512586335.1,286047004.6,N
1512586336.0,286047004.6,N
1512586355.8,286047008.3,N
1512586375.6,286047008.1,N
1512586395.5,286047007.8,N
1512586415.3,286047003.5,N
1512586435.1,286046998.7,N
1512586455.9,286046999.9,N
1512586475.7,286047000.6,N
1512586495.5,286046998.4,N
1512586515.4,286046993.7,N
1512586535.2,286046989.7,N
1512586555.0,286046985.5,N
1512586555.9,286046985.5,N
1512586575.8,286046986.9,N
1512586595.6,286046990.4,N
1512586615.4,286046989.3,N
1512586635.2,286046984.7,N
1512586655.1,286046977.9,N
1512586656.0,286046977.9,N
1512586675.8,286046977.1,N
1512586695.2,286046973.1,N
1512586715.1,286046969.8,N
1512586716.0,286046969.8,N
1512586735.8,286046966.6,N
1512586755.6,286046967.1,N
1512586775.5,286046965.5,N
1512586795.3,286046962.6,N
